Flag for Taiwan Weather past 2 weeks in Taipei, Taiwan

Now
82 °F

Sprinkles. Partly sunny.


Feels Like: 91 °F
Forecast: 84 / 94 °F
Wind: 6 mph from West

Location: Sungshan / Taipei

Current Time: Jul 23, 2014 at 2:32:10 PM

Latest Report: Jul 23, 2014 at 1:30 PM


Visibility: N/A

Pressure: 29.30 "Hg

Humidity: 84%

Dew point: 77 °F

Location of TaipeiLocation

Historic Weather in Taipei — Graph

°F

Taipei temperature yesterday

Maximum temperature yesterday: 90 °F (at 12:00 PM)
Minimum temperature yesterday: 79 °F (at 5:30 PM)
Average temperature yesterday: 84 °F

Past Weeks' High & Low Weather Summary

 TemperatureHumidityPressure
High99 °F (Jul 9, 12:00 PM)89% (Jul 22, 4:30 AM)29.86 "Hg (Jul 22, 4:30 AM)
Low79 °F (Jul 22, 5:30 PM)37% (Jul 9, 12:00 PM)29.24 "Hg (Jul 23, 7:00 AM)
Average88 °F65%29.71 "Hg
* Reported Jul 8 1:00 PM — Jul 23 1:30 PM, Taipei, Weather by CustomWeather, © 2014

Note: Actual official high and low records may vary slightly from our data, if they occured in-between our weather recording intervals... More about our weather records

Advertising

Taipei weather history for previous 24 hours

 ConditionsComfort  
Time TempWeatherWind HumidityBarometerVisibility
1:30 PM
Jul 23
82 °FSprinkles. Partly sunny.6 mph84%29.30 "HgN/A
1:00 PM82 °FSprinkles. Partly sunny.6 mph84%29.27 "HgN/A
12:30 PM82 °FSprinkles. Partly sunny.5 mph79%29.30 "HgN/A
12:00 PM84 °FSprinkles. Partly sunny.8 mph74%29.33 "HgN/A
11:30 AM82 °FSprinkles. Partly sunny.21 mph74%29.27 "HgN/A
11:00 AM84 °FSprinkles. Partly sunny.35 mph70%29.27 "HgN/A
10:30 AM81 °FSprinkles. Partly sunny.29 mph79%29.24 "Hg3 mi
10:03 AM81 °FLots of rain. Broken clouds.33 mph79%29.24 "Hg2 mi
9:30 AM81 °FThunderstorms. Partly sunny.33 mph79%29.24 "Hg2 mi
9:03 AM82 °FRain showers. Partly sunny.33 mph79%29.24 "Hg3 mi
9:00 AM82 °FSprinkles. Partly sunny.32 mph79%29.24 "Hg4 mi
8:30 AM84 °FSprinkles. Partly sunny.28 mph70%29.24 "Hg4 mi
8:00 AM82 °FRain showers. Broken clouds.28 mph79%29.24 "Hg2 mi
7:00 AM84 °FSprinkles. Broken clouds.30 mph70%29.24 "HgN/A
1:00 AM79 °FRain showers. Partly cloudy.28 mph84%29.36 "Hg2 mi
12:48 AM81 °FRain showers. Partly cloudy.26 mph79%29.36 "Hg2 mi
12:00 AM81 °FRain showers. Partly cloudy.28 mph79%29.42 "Hg2 mi
11:52 PM
Jul 22
81 °FRain showers. Partly cloudy.28 mph79%29.42 "Hg2 mi
11:30 PM82 °FSprinkles. Passing clouds.28 mph74%29.39 "HgN/A
11:00 PM84 °FSprinkles. Passing clouds.29 mph70%29.42 "HgN/A
10:30 PM82 °FSprinkles. Passing clouds.23 mph74%29.45 "HgN/A
10:00 PM82 °FSprinkles. Passing clouds.21 mph79%29.45 "HgN/A
9:30 PM82 °FSprinkles. Partly cloudy.23 mph79%29.45 "Hg4 mi
9:00 PM84 °FSprinkles. Passing clouds.17 mph74%29.47 "Hg6 mi
8:30 PM84 °FSprinkles. Passing clouds.21 mph74%29.47 "HgN/A
8:00 PM84 °FSprinkles. Passing clouds.18 mph74%29.47 "HgN/A
7:30 PM84 °FSprinkles. Partly cloudy.20 mph79%29.47 "HgN/A
7:00 PM82 °FSprinkles. Partly cloudy.16 mph84%29.47 "HgN/A
6:30 PM82 °FSprinkles. Broken clouds.17 mph79%29.50 "HgN/A
6:00 PM81 °FThundershowers. Broken clouds.16 mph84%29.50 "HgN/A
5:47 PM79 °FThunderstorms. Broken clouds.15 mph89%29.50 "Hg3 mi
5:30 PM79 °FThundershowers. Broken clouds.13 mph89%29.53 "Hg2 mi
5:02 PM82 °FStrong thunderstorms. Broken clouds.21 mph84%29.53 "Hg2 mi
4:30 PM84 °FRain showers. Broken clouds.17 mph79%29.50 "Hg2 mi
4:00 PM86 °FSprinkles. Broken clouds.18 mph70%29.53 "HgN/A
3:30 PM86 °FSprinkles. Broken clouds.20 mph70%29.53 "HgN/A
3:00 PM88 °FSprinkles. Broken clouds.17 mph66%29.53 "HgN/A
2:30 PM88 °FSprinkles. Broken clouds.20 mph70%29.53 "HgN/A
2:00 PM88 °FSprinkles. Partly sunny.18 mph70%29.53 "Hg4 mi
Weather by CustomWeather, © 2014

See weather overviewHow to use our weather pages